This is the latest recevied weather packets stored in our database for station/object VK2TRB. If no packets are shown the sender has not sent any weather packets the latest 10 day(s).
| Time | Temp. | Humidity | Pressure | Rain* | Wind** | Luminosity | Snow |
|---|---|---|---|---|---|---|---|
| 1788451621 | 7.22° C | 94% | 1017.3 hPa | 0 mm | - | - | - |
| 1788450723 | 6.67° C | 94% | 1017.4 hPa | 0 mm | - | - | - |
| 1788449823 | 6.67° C | 93% | 1017.7 hPa | 0 mm | - | - | - |
| 1788448922 | 6.67° C | 93% | 1017.4 hPa | 0 mm | - | - | - |
| 1788448022 | 6.67° C | 93% | 1017.4 hPa | 0 mm | - | - | - |
| 1788447121 | 7.22° C | 93% | 1017.3 hPa | 0.25 mm | - | - | - |
| 1788446223 | 7.22° C | 93% | 1017.3 hPa | 0.25 mm | - | - | - |
| 1788445323 | 7.22° C | 93% | 1017.4 hPa | 0.25 mm | - | - | - |
| 1788444422 | 7.22° C | 92% | 1017.4 hPa | 0.25 mm | - | - | - |
| 1788443522 | 7.78° C | 92% | 1017.5 hPa | 0.25 mm | - | - | - |
| 1788442622 | 7.78° C | 92% | 1017.6 hPa | 0.25 mm | - | - | - |
| 1788441723 | 8.33° C | 92% | 1017.6 hPa | 0.25 mm | - | - | - |
| 1788440824 | 8.89° C | 92% | 1017.6 hPa | 0.25 mm | - | - | - |
| 1788439923 | 8.89° C | 91% | 1017.6 hPa | 0.25 mm | - | - | - |
| 1788439022 | 9.44° C | 91% | 1017.6 hPa | 0.25 mm | - | - | - |
| 1788438123 | 10° C | 91% | 1017.6 hPa | 0.25 mm | - | - | - |
| 1788437223 | 10.56° C | 90% | 1017.6 hPa | 0.25 mm | - | - | - |
| 1788436323 | 10.56° C | 89% | 1017.5 hPa | 0.25 mm | - | - | - |
| 1788435423 | 11.11° C | 89% | 1017.5 hPa | 0.25 mm | - | - | - |
| 1788434523 | 11.67° C | 88% | 1017.4 hPa | 0.25 mm | - | - | - |
| 1788433622 | 12.22° C | 87% | 1017.3 hPa | 0.25 mm | - | - | - |
| 1788432724 | 12.22° C | 86% | 1017.1 hPa | 0.25 mm | - | - | - |
| 1788431823 | 12.78° C | 84% | 1016.9 hPa | 0.25 mm | - | - | - |
| 1788430923 | 13.33° C | 82% | 1016.7 hPa | 0.25 mm | - | - | - |
| 1788430022 | 13.33° C | 81% | 1016.5 hPa | 0.25 mm | - | - | - |
* Rain latest hour (hover to see other rain measurements)
** Current wind speed in m/s (hover to see current wind gust speed)